Tracking 28052 objects as of 25-Sep-2023
HD Live streaming from Space Station
objects crossing your sky now

COSMOS 1257

Track COSMOS 1257 now!
10-day predictions
COSMOS 1257 is classified as:


NORAD ID: 12327
Int'l Code: 1981-022H
Perigee: 1,475.0 km
Apogee: 1,486.5 km
Inclination: 74.0 °
Period: 115.4 minutes
Semi major axis: 7851 km
RCS: 0.7143 m2 (medium)
Launch date: March 6, 1981
Source: Commonwealth of Independent States (former USSR) (CIS)
Launch site: PLESETSK MISSILE AND SPACE COMPLEX (PKMTR)
Your satellite tracking list
Your tracking list is empty




NASA's NSSDC Master Catalog

Two Line Element Set (TLE):
1 12327U 81022H   23268.56823125  .00000014  00000-0  20319-3 0  9994
2 12327  74.0276 297.1091 0007316 341.0084 134.8721 12.47832926938470
Source of the keplerian elements: AFSPC